Year,Month,Day,Hour,Minute,Value (Times are PST for temperature in C)
2019,09,28,00,00,8.50
2019,09,28,00,01,8.50
2019,09,28,00,02,8.50
2019,09,28,00,03,8.50
2019,09,28,00,04,8.50
2019,09,28,00,05,8.40
2019,09,28,00,06,8.50
2019,09,28,00,07,8.40
2019,09,28,00,08,8.50
2019,09,28,00,09,8.50
2019,09,28,00,10,8.50
2019,09,28,00,11,8.50
2019,09,28,00,12,8.60
2019,09,28,00,13,8.60
2019,09,28,00,14,8.60
2019,09,28,00,15,8.60
2019,09,28,00,16,8.60
2019,09,28,00,17,8.60
2019,09,28,00,18,8.70
2019,09,28,00,19,8.70
2019,09,28,00,20,8.70
2019,09,28,00,21,8.70
2019,09,28,00,22,8.80
2019,09,28,00,23,8.80
2019,09,28,00,24,8.80
2019,09,28,00,25,8.80
2019,09,28,00,26,8.80
2019,09,28,00,27,8.80
2019,09,28,00,28,8.80
2019,09,28,00,29,8.80
2019,09,28,00,30,8.80
2019,09,28,00,31,8.80
2019,09,28,00,32,8.80
2019,09,28,00,33,8.90
2019,09,28,00,34,8.90
2019,09,28,00,35,8.90
2019,09,28,00,36,8.90
2019,09,28,00,37,8.90
2019,09,28,00,38,8.90
2019,09,28,00,39,8.90
2019,09,28,00,40,8.90
2019,09,28,00,41,9.00
2019,09,28,00,42,9.00
2019,09,28,00,43,9.00
2019,09,28,00,44,9.00
2019,09,28,00,45,9.10
2019,09,28,00,46,9.10
2019,09,28,00,47,9.10
2019,09,28,00,48,9.10
2019,09,28,00,49,9.20
2019,09,28,00,50,9.20
2019,09,28,00,51,9.20
2019,09,28,00,52,9.20
2019,09,28,00,53,9.20
2019,09,28,00,54,9.20
2019,09,28,00,55,9.20
2019,09,28,00,56,9.30
2019,09,28,00,57,9.30
2019,09,28,00,58,9.30
2019,09,28,00,59,9.30
2019,09,28,01,00,9.30
2019,09,28,01,01,9.30
2019,09,28,01,02,9.30
2019,09,28,01,03,9.40
2019,09,28,01,04,9.40
2019,09,28,01,05,9.40
2019,09,28,01,06,9.40
2019,09,28,01,07,9.40
2019,09,28,01,08,9.50
2019,09,28,01,09,9.50
2019,09,28,01,10,9.50
2019,09,28,01,11,9.40
2019,09,28,01,12,9.40
2019,09,28,01,13,9.40
2019,09,28,01,14,9.40
2019,09,28,01,15,9.50
2019,09,28,01,16,9.50
2019,09,28,01,17,9.50
2019,09,28,01,18,9.50
2019,09,28,01,19,9.50
2019,09,28,01,20,9.50
2019,09,28,01,21,9.50
2019,09,28,01,22,9.50
2019,09,28,01,23,9.50
2019,09,28,01,24,9.50
2019,09,28,01,25,9.40
2019,09,28,01,26,9.40
2019,09,28,01,27,9.40
2019,09,28,01,28,9.40
2019,09,28,01,29,9.40
2019,09,28,01,30,9.30
2019,09,28,01,31,9.30
2019,09,28,01,32,9.30
2019,09,28,01,33,9.30
2019,09,28,01,34,9.30
2019,09,28,01,35,9.20
2019,09,28,01,36,9.20
2019,09,28,01,37,9.20
2019,09,28,01,38,9.20
2019,09,28,01,39,9.20
2019,09,28,01,40,9.20
2019,09,28,01,41,9.10
2019,09,28,01,42,9.10
2019,09,28,01,43,9.10
2019,09,28,01,44,9.10
2019,09,28,01,45,9.10
2019,09,28,01,46,9.00
2019,09,28,01,47,9.00
2019,09,28,01,48,9.00
2019,09,28,01,49,9.10
2019,09,28,01,50,9.10
2019,09,28,01,51,9.10
2019,09,28,01,52,9.20
2019,09,28,01,53,9.20
2019,09,28,01,54,9.20
2019,09,28,01,55,9.20
2019,09,28,01,56,9.30
2019,09,28,01,57,9.30
2019,09,28,01,58,9.30
2019,09,28,01,59,9.40
2019,09,28,02,00,9.40
2019,09,28,02,01,9.40
2019,09,28,02,02,9.50
2019,09,28,02,03,9.50
2019,09,28,02,04,9.60
2019,09,28,02,05,9.60
2019,09,28,02,06,9.60
2019,09,28,02,07,9.60
2019,09,28,02,08,9.60
2019,09,28,02,09,9.60
2019,09,28,02,10,9.60
2019,09,28,02,11,9.70
2019,09,28,02,12,9.70
2019,09,28,02,13,9.70
2019,09,28,02,14,9.70
2019,09,28,02,15,9.70
2019,09,28,02,16,9.70
2019,09,28,02,17,9.70
2019,09,28,02,18,9.70
2019,09,28,02,19,9.70
2019,09,28,02,20,9.80
2019,09,28,02,21,9.80
2019,09,28,02,22,9.80
2019,09,28,02,23,9.80
2019,09,28,02,24,9.80
2019,09,28,02,25,9.80
2019,09,28,02,26,9.80
2019,09,28,02,27,9.80
2019,09,28,02,28,9.80
2019,09,28,02,29,9.80
2019,09,28,02,30,9.80
2019,09,28,02,31,9.80
2019,09,28,02,32,9.80
2019,09,28,02,33,9.80
2019,09,28,02,34,9.80
2019,09,28,02,35,9.80
2019,09,28,02,36,9.80
2019,09,28,02,37,9.80
2019,09,28,02,38,9.80
2019,09,28,02,39,9.80
2019,09,28,02,40,9.80
2019,09,28,02,41,9.80
2019,09,28,02,42,9.80
2019,09,28,02,43,9.80
2019,09,28,02,44,9.80
2019,09,28,02,45,9.80
2019,09,28,02,46,9.70
2019,09,28,02,47,9.70
2019,09,28,02,48,9.70
2019,09,28,02,49,9.70
2019,09,28,02,50,9.70
2019,09,28,02,51,9.60
2019,09,28,02,52,9.60
2019,09,28,02,53,9.60
2019,09,28,02,54,9.60
2019,09,28,02,55,9.60
2019,09,28,02,56,9.60
2019,09,28,02,57,9.60
2019,09,28,02,58,9.70
2019,09,28,02,59,9.70
2019,09,28,03,00,9.70
2019,09,28,03,01,9.70
2019,09,28,03,02,9.70
2019,09,28,03,06,9.70
2019,09,28,03,07,9.60
2019,09,28,03,08,9.60
2019,09,28,03,09,9.60
2019,09,28,03,10,9.70
2019,09,28,03,11,9.60
2019,09,28,03,12,9.60
2019,09,28,03,13,9.60
2019,09,28,03,14,9.60
2019,09,28,03,15,9.60
2019,09,28,03,16,9.60
2019,09,28,03,17,9.60
2019,09,28,03,18,9.60
2019,09,28,03,19,9.70
2019,09,28,03,20,9.70
2019,09,28,03,21,9.70
2019,09,28,03,22,9.70
2019,09,28,03,23,9.70
2019,09,28,03,24,9.70
2019,09,28,03,25,9.70
2019,09,28,03,26,9.70
2019,09,28,03,27,9.70
2019,09,28,03,28,9.70
2019,09,28,03,29,9.70
2019,09,28,03,30,9.70
2019,09,28,03,31,9.70
2019,09,28,03,32,9.70
2019,09,28,03,33,9.70
2019,09,28,03,34,9.80
2019,09,28,03,35,9.70
2019,09,28,03,36,9.70
2019,09,28,03,37,9.70
2019,09,28,03,38,9.70
2019,09,28,03,39,9.70
2019,09,28,03,40,9.70
2019,09,28,03,41,9.70
2019,09,28,03,42,9.70
2019,09,28,03,43,9.70
2019,09,28,03,44,9.70
2019,09,28,03,45,9.80
2019,09,28,03,46,9.70
2019,09,28,03,47,9.80
2019,09,28,03,48,9.80
2019,09,28,03,49,9.80
2019,09,28,03,50,9.80
2019,09,28,03,51,9.80
2019,09,28,03,52,9.80
2019,09,28,03,53,9.80
2019,09,28,03,54,9.80
2019,09,28,03,55,9.80
2019,09,28,03,56,9.80
2019,09,28,03,57,9.80
2019,09,28,03,58,9.80
2019,09,28,03,59,9.80
2019,09,28,04,00,9.70
2019,09,28,04,01,9.80
2019,09,28,04,02,9.80
2019,09,28,04,03,9.80
2019,09,28,04,04,9.80
2019,09,28,04,05,9.80
2019,09,28,04,06,9.80
2019,09,28,04,07,9.80
2019,09,28,04,08,9.80
2019,09,28,04,09,9.80
2019,09,28,04,10,9.80
2019,09,28,04,11,9.80
2019,09,28,04,12,9.80
2019,09,28,04,13,9.80
2019,09,28,04,14,9.80
2019,09,28,04,15,9.80
2019,09,28,04,16,9.80
2019,09,28,04,17,9.80
2019,09,28,04,18,9.80
2019,09,28,04,19,9.80
2019,09,28,04,20,9.80
2019,09,28,04,21,9.80
2019,09,28,04,22,9.80
2019,09,28,04,23,9.80
2019,09,28,04,24,9.80
2019,09,28,04,25,9.80
2019,09,28,04,26,9.80
2019,09,28,04,27,9.80
2019,09,28,04,28,9.90
2019,09,28,04,29,9.90
2019,09,28,04,30,9.90
2019,09,28,04,31,9.90
2019,09,28,04,32,10.00
2019,09,28,04,33,10.00
2019,09,28,04,34,10.00
2019,09,28,04,35,10.00
2019,09,28,04,36,10.00
2019,09,28,04,37,10.00
2019,09,28,04,38,10.00
2019,09,28,04,39,10.00
2019,09,28,04,40,10.00
2019,09,28,04,41,10.00
2019,09,28,04,42,10.00
2019,09,28,04,43,10.00
2019,09,28,04,44,10.00
2019,09,28,04,45,10.00
2019,09,28,04,46,10.00
2019,09,28,04,47,10.00
2019,09,28,04,48,10.00
2019,09,28,04,49,10.00
2019,09,28,04,50,10.00
2019,09,28,04,51,10.00
2019,09,28,04,52,10.00
2019,09,28,04,53,10.00
2019,09,28,04,54,10.00
2019,09,28,04,55,10.00
2019,09,28,04,56,10.00
2019,09,28,04,57,10.10
2019,09,28,04,58,10.10
2019,09,28,04,59,10.10
2019,09,28,05,00,10.10
2019,09,28,05,01,10.10
2019,09,28,05,02,10.10
2019,09,28,05,03,10.10
2019,09,28,05,04,10.10
2019,09,28,05,05,10.10
2019,09,28,05,06,10.20
2019,09,28,05,07,10.10
2019,09,28,05,08,10.10
2019,09,28,05,09,10.10
2019,09,28,05,10,10.10
2019,09,28,05,11,10.10
2019,09,28,05,12,10.10
2019,09,28,05,13,10.10
2019,09,28,05,14,10.10
2019,09,28,05,15,10.10
2019,09,28,05,16,10.10
2019,09,28,05,17,10.00
2019,09,28,05,18,10.00
2019,09,28,05,19,10.00
2019,09,28,05,20,10.00
2019,09,28,05,21,10.00
2019,09,28,05,22,10.00
2019,09,28,05,23,10.00
2019,09,28,05,24,10.10
2019,09,28,05,25,10.00
2019,09,28,05,26,10.00
2019,09,28,05,27,10.00
2019,09,28,05,28,10.00
2019,09,28,05,29,10.00
2019,09,28,05,30,10.00
2019,09,28,05,31,10.00
2019,09,28,05,32,10.00
2019,09,28,05,33,10.10
2019,09,28,05,34,10.10
2019,09,28,05,35,10.10
2019,09,28,05,36,10.10
2019,09,28,05,37,10.10
2019,09,28,05,38,10.10
2019,09,28,05,39,10.10
2019,09,28,05,40,10.10
2019,09,28,05,41,10.10
2019,09,28,05,42,10.10
2019,09,28,05,43,10.10
2019,09,28,05,44,10.20
2019,09,28,05,45,10.20
2019,09,28,05,46,10.20
2019,09,28,05,47,10.20
2019,09,28,05,48,10.20
2019,09,28,05,49,10.20
2019,09,28,05,50,10.20
2019,09,28,05,51,10.20
2019,09,28,05,52,10.20
2019,09,28,05,53,10.20
2019,09,28,05,54,10.20
2019,09,28,05,55,10.20
2019,09,28,05,56,10.20
2019,09,28,05,57,10.20
2019,09,28,05,58,10.20
2019,09,28,05,59,10.20
2019,09,28,06,00,10.20
2019,09,28,06,01,10.20
2019,09,28,06,02,10.20
2019,09,28,06,03,10.20
2019,09,28,06,04,10.20
2019,09,28,06,05,10.20
2019,09,28,06,06,10.20
2019,09,28,06,07,10.20
2019,09,28,06,08,10.20
2019,09,28,06,09,10.20
2019,09,28,06,10,10.20
2019,09,28,06,11,10.20
2019,09,28,06,12,10.20
2019,09,28,06,13,10.20
2019,09,28,06,14,10.20
2019,09,28,06,15,10.20
2019,09,28,06,16,10.20
2019,09,28,06,17,10.20
2019,09,28,06,18,10.20
2019,09,28,06,19,10.20
2019,09,28,06,20,10.20
2019,09,28,06,21,10.20
2019,09,28,06,22,10.20
2019,09,28,06,23,10.20
2019,09,28,06,24,10.20
2019,09,28,06,25,10.20
2019,09,28,06,26,10.20
2019,09,28,06,27,10.20
2019,09,28,06,28,10.20
2019,09,28,06,29,10.20
2019,09,28,06,30,10.20
2019,09,28,06,31,10.20
2019,09,28,06,32,10.20
2019,09,28,06,33,10.20
2019,09,28,06,34,10.20
2019,09,28,06,35,10.20
2019,09,28,06,36,10.20
2019,09,28,06,37,10.20
2019,09,28,06,38,10.30
2019,09,28,06,39,10.30
2019,09,28,06,40,10.30
2019,09,28,06,41,10.30
2019,09,28,06,42,10.30
2019,09,28,06,43,10.20
2019,09,28,06,44,10.20
2019,09,28,06,45,10.20
2019,09,28,06,46,10.20
2019,09,28,06,47,10.20
2019,09,28,06,48,10.20
2019,09,28,06,49,10.20
2019,09,28,06,50,10.20
2019,09,28,06,51,10.20
2019,09,28,06,52,10.20
2019,09,28,06,53,10.20
2019,09,28,06,54,10.30
2019,09,28,06,55,10.30
2019,09,28,06,56,10.30
2019,09,28,06,57,10.30
2019,09,28,06,58,10.30
2019,09,28,06,59,10.30
2019,09,28,07,00,10.30
2019,09,28,07,01,10.30
2019,09,28,07,02,10.30
2019,09,28,07,03,10.30
2019,09,28,07,04,10.30
2019,09,28,07,05,10.30
2019,09,28,07,06,10.30
2019,09,28,07,07,10.30
2019,09,28,07,08,10.30
2019,09,28,07,09,10.30
2019,09,28,07,10,10.30
2019,09,28,07,11,10.30
2019,09,28,07,12,10.20
2019,09,28,07,13,10.20
2019,09,28,07,14,10.20
2019,09,28,07,15,10.20
2019,09,28,07,16,10.20
2019,09,28,07,17,10.20
2019,09,28,07,18,10.20
2019,09,28,07,19,10.20
2019,09,28,07,20,10.20
2019,09,28,07,21,10.20
2019,09,28,07,22,10.20
2019,09,28,07,23,10.20
2019,09,28,07,24,10.20
2019,09,28,07,25,10.20
2019,09,28,07,26,10.20
2019,09,28,07,27,10.20
2019,09,28,07,28,10.10
2019,09,28,07,29,10.10
2019,09,28,07,30,10.10
2019,09,28,07,31,10.10
2019,09,28,07,32,10.10
2019,09,28,07,33,10.10
2019,09,28,07,34,10.10
2019,09,28,07,35,10.00
2019,09,28,07,36,10.00
2019,09,28,07,37,10.10
2019,09,28,07,38,10.10
2019,09,28,07,39,10.10
2019,09,28,07,40,10.10
2019,09,28,07,41,10.20
2019,09,28,07,42,10.20
2019,09,28,07,43,10.20
2019,09,28,07,44,10.20
2019,09,28,07,45,10.20
2019,09,28,07,46,10.20
2019,09,28,07,47,10.20
2019,09,28,07,48,10.20
2019,09,28,07,49,10.20
2019,09,28,07,50,10.10
2019,09,28,07,51,10.10
2019,09,28,07,52,10.10
2019,09,28,07,53,10.10
2019,09,28,07,54,10.10
2019,09,28,07,55,10.10
2019,09,28,07,56,10.10
2019,09,28,07,57,10.10
2019,09,28,07,58,10.10
2019,09,28,07,59,10.10
2019,09,28,08,00,10.10
2019,09,28,08,01,10.10
2019,09,28,08,02,10.10
2019,09,28,08,03,10.10
2019,09,28,08,04,10.10
2019,09,28,08,05,10.10
2019,09,28,08,06,10.20
2019,09,28,08,07,10.20
2019,09,28,08,08,10.20
2019,09,28,08,09,10.20
2019,09,28,08,10,10.20
2019,09,28,08,11,10.20
2019,09,28,08,12,10.20
2019,09,28,08,13,10.30
2019,09,28,08,14,10.30
2019,09,28,08,15,10.30
2019,09,28,08,16,10.30
2019,09,28,08,17,10.40
2019,09,28,08,18,10.40
2019,09,28,08,19,10.40
2019,09,28,08,20,10.50
2019,09,28,08,21,10.50
2019,09,28,08,22,10.60
2019,09,28,08,23,10.60
2019,09,28,08,24,10.60
2019,09,28,08,25,10.60
2019,09,28,08,26,10.70
2019,09,28,08,27,10.70
2019,09,28,08,28,10.70
2019,09,28,08,29,10.70
2019,09,28,08,30,10.70
2019,09,28,08,31,10.70
2019,09,28,08,32,10.70
2019,09,28,08,33,10.70
2019,09,28,08,34,10.70
2019,09,28,08,35,10.70
2019,09,28,08,36,10.70
2019,09,28,08,37,10.70
2019,09,28,08,38,10.70
2019,09,28,08,39,10.70
2019,09,28,08,40,10.70
2019,09,28,08,41,10.80
2019,09,28,08,42,10.80
2019,09,28,08,43,10.80
2019,09,28,08,44,10.80
2019,09,28,08,45,10.80
2019,09,28,08,46,10.80
2019,09,28,08,47,10.80
2019,09,28,08,48,10.90
2019,09,28,08,49,10.90
2019,09,28,08,50,11.00
2019,09,28,08,51,11.00
2019,09,28,08,52,11.10
2019,09,28,08,53,11.10
2019,09,28,08,54,11.10
2019,09,28,08,55,11.10
2019,09,28,08,56,11.30
2019,09,28,08,57,11.40
2019,09,28,08,58,11.40
2019,09,28,08,59,11.50
2019,09,28,09,00,11.50
2019,09,28,09,01,11.50
2019,09,28,09,02,11.60
2019,09,28,09,03,11.60
2019,09,28,09,04,11.70
2019,09,28,09,05,11.70
2019,09,28,09,06,11.70
2019,09,28,09,07,11.70
2019,09,28,09,08,11.70
2019,09,28,09,09,11.70
2019,09,28,09,10,11.70
2019,09,28,09,11,11.70
2019,09,28,09,12,11.70
2019,09,28,09,13,11.60
2019,09,28,09,14,11.60
2019,09,28,09,15,11.60
2019,09,28,09,16,11.60
2019,09,28,09,17,11.50
2019,09,28,09,18,11.50
2019,09,28,09,19,11.50
2019,09,28,09,20,11.50
2019,09,28,09,21,11.50
2019,09,28,09,22,11.50
2019,09,28,09,23,11.50
2019,09,28,09,24,11.40
2019,09,28,09,25,11.40
2019,09,28,09,26,11.40
2019,09,28,09,27,11.40
2019,09,28,09,28,11.40
2019,09,28,09,29,11.40
2019,09,28,09,30,11.40
2019,09,28,09,31,11.40
2019,09,28,09,32,11.40
2019,09,28,09,33,11.40
2019,09,28,09,34,11.40
2019,09,28,09,35,11.40
2019,09,28,09,36,11.40
2019,09,28,09,37,11.40
2019,09,28,09,38,11.40
2019,09,28,09,39,11.40
2019,09,28,09,40,11.40
2019,09,28,09,41,11.40
2019,09,28,09,42,11.40
2019,09,28,09,43,11.40
2019,09,28,09,44,11.50
2019,09,28,09,45,11.60
2019,09,28,09,46,11.60
2019,09,28,09,47,11.60
2019,09,28,09,48,11.70
2019,09,28,09,49,11.80
2019,09,28,09,50,11.80
2019,09,28,09,51,11.90
2019,09,28,09,52,11.90
2019,09,28,09,53,12.00
2019,09,28,09,54,12.10
2019,09,28,09,55,12.10
2019,09,28,09,56,12.20
2019,09,28,09,57,12.30
2019,09,28,09,58,12.30
2019,09,28,09,59,12.40
2019,09,28,10,00,12.50
2019,09,28,10,01,12.60
2019,09,28,10,02,12.70
2019,09,28,10,03,12.80
2019,09,28,10,04,12.80
2019,09,28,10,05,12.90
2019,09,28,10,06,13.00
2019,09,28,10,07,13.00
2019,09,28,10,08,13.10
2019,09,28,10,09,13.20
2019,09,28,10,10,13.20
2019,09,28,10,11,13.30
2019,09,28,10,12,13.40
2019,09,28,10,13,13.40
2019,09,28,10,14,13.40
2019,09,28,10,15,13.50
2019,09,28,10,16,13.60
2019,09,28,10,17,13.60
2019,09,28,10,18,13.70
2019,09,28,10,19,13.70
2019,09,28,10,20,13.70
2019,09,28,10,21,13.70
2019,09,28,10,22,13.80
2019,09,28,10,23,13.80
2019,09,28,10,24,13.80
2019,09,28,10,25,13.80
2019,09,28,10,26,13.80
2019,09,28,10,27,13.80
2019,09,28,10,28,13.90
2019,09,28,10,29,13.90
2019,09,28,10,30,14.00
2019,09,28,10,31,14.00
2019,09,28,10,32,14.10
2019,09,28,10,33,14.10
2019,09,28,10,34,14.10
2019,09,28,10,35,14.10
2019,09,28,10,36,14.10
2019,09,28,10,37,14.20
2019,09,28,10,38,14.20
2019,09,28,10,39,14.20
2019,09,28,10,40,14.20
2019,09,28,10,41,14.20
2019,09,28,10,42,14.20
2019,09,28,10,43,14.20
2019,09,28,10,44,14.20
2019,09,28,10,45,14.30
2019,09,28,10,46,14.30
2019,09,28,10,47,14.40
2019,09,28,10,48,14.50
2019,09,28,10,49,14.50
2019,09,28,10,50,14.50
2019,09,28,10,51,14.50
2019,09,28,10,52,14.60
2019,09,28,10,53,14.60
2019,09,28,10,54,14.60
2019,09,28,10,55,14.70
2019,09,28,10,56,14.70
2019,09,28,10,57,14.70
2019,09,28,10,58,14.70
2019,09,28,10,59,14.70
2019,09,28,11,00,14.70
2019,09,28,11,01,14.70
2019,09,28,11,02,14.80
2019,09,28,11,03,14.80
2019,09,28,11,04,14.80
2019,09,28,11,05,14.80
2019,09,28,11,06,14.80
2019,09,28,11,07,14.90
2019,09,28,11,08,14.90
2019,09,28,11,09,14.90
2019,09,28,11,10,14.90
2019,09,28,11,11,15.00
2019,09,28,11,12,15.00
2019,09,28,11,13,15.00
2019,09,28,11,14,14.90
2019,09,28,11,15,15.00
2019,09,28,11,16,15.00
2019,09,28,11,17,15.00
2019,09,28,11,18,15.00
2019,09,28,11,19,15.00
2019,09,28,11,20,15.00
2019,09,28,11,21,15.00
2019,09,28,11,22,15.00
2019,09,28,11,23,15.00
2019,09,28,11,24,15.00
2019,09,28,11,25,15.00
2019,09,28,11,26,14.90
2019,09,28,11,27,14.90
2019,09,28,11,28,14.80
2019,09,28,11,29,14.90
2019,09,28,11,30,14.90
2019,09,28,11,31,14.90
2019,09,28,11,32,14.90
2019,09,28,11,33,15.00
2019,09,28,11,34,15.00
2019,09,28,11,35,15.00
2019,09,28,11,36,15.00
2019,09,28,11,37,14.90
2019,09,28,11,38,14.80
2019,09,28,11,39,14.80
2019,09,28,11,40,14.80
2019,09,28,11,41,14.80
2019,09,28,11,42,14.80
2019,09,28,11,43,14.80
2019,09,28,11,44,14.90
2019,09,28,11,45,14.90
2019,09,28,11,46,14.90
2019,09,28,11,47,15.00
2019,09,28,11,48,15.00
2019,09,28,11,49,15.00
2019,09,28,11,50,15.00
2019,09,28,11,51,15.00
2019,09,28,11,52,15.00
2019,09,28,11,53,15.00
2019,09,28,11,54,15.00
2019,09,28,11,55,15.00
2019,09,28,11,56,15.00
2019,09,28,11,57,15.00
2019,09,28,11,58,15.00
2019,09,28,11,59,15.00
2019,09,28,12,00,15.00
2019,09,28,12,01,15.00
2019,09,28,12,02,15.00
2019,09,28,12,03,15.00
2019,09,28,12,04,15.00
2019,09,28,12,05,15.00
2019,09,28,12,06,15.00
2019,09,28,12,07,15.00
2019,09,28,12,08,15.00
2019,09,28,12,09,15.10
2019,09,28,12,10,15.10
2019,09,28,12,11,15.20
2019,09,28,12,12,15.20
2019,09,28,12,13,15.20
2019,09,28,12,14,15.30
2019,09,28,12,15,15.30
2019,09,28,12,16,15.30
2019,09,28,12,17,15.30
2019,09,28,12,18,15.40
2019,09,28,12,19,15.40
2019,09,28,12,20,15.50
2019,09,28,12,21,15.50
2019,09,28,12,22,15.50
2019,09,28,12,23,15.50
2019,09,28,12,24,15.40
2019,09,28,12,25,15.30
2019,09,28,12,26,15.30
2019,09,28,12,27,15.20
2019,09,28,12,28,15.20
2019,09,28,12,29,15.20
2019,09,28,12,30,15.20
2019,09,28,12,31,15.20
2019,09,28,12,32,15.20
2019,09,28,12,33,15.20
2019,09,28,12,34,15.20
2019,09,28,12,35,15.20
2019,09,28,12,36,15.30
2019,09,28,12,37,15.20
2019,09,28,12,38,15.30
2019,09,28,12,39,15.30
2019,09,28,12,40,15.40
2019,09,28,12,41,15.50
2019,09,28,12,42,15.50
2019,09,28,12,43,15.60
2019,09,28,12,44,15.70
2019,09,28,12,45,15.70
2019,09,28,12,46,15.70
2019,09,28,12,47,15.70
2019,09,28,12,48,15.70
2019,09,28,12,49,15.70
2019,09,28,12,50,15.60
2019,09,28,12,51,15.60
2019,09,28,12,52,15.50
2019,09,28,12,53,15.50
2019,09,28,12,54,15.50
2019,09,28,12,55,15.60
2019,09,28,12,56,15.60
2019,09,28,12,57,15.60
2019,09,28,12,58,15.60
2019,09,28,12,59,15.60
2019,09,28,13,00,15.70
2019,09,28,13,01,15.70
2019,09,28,13,02,15.70
2019,09,28,13,03,15.70
2019,09,28,13,04,15.80
2019,09,28,13,05,15.70
2019,09,28,13,06,15.70
2019,09,28,13,07,15.70
2019,09,28,13,08,15.70
2019,09,28,13,09,15.70
2019,09,28,13,10,15.60
2019,09,28,13,11,15.60
2019,09,28,13,12,15.70
2019,09,28,13,13,15.70
2019,09,28,13,14,15.70
2019,09,28,13,15,15.70
2019,09,28,13,16,15.70
2019,09,28,13,17,15.80
2019,09,28,13,18,15.80
2019,09,28,13,19,15.80
2019,09,28,13,20,15.80
2019,09,28,13,21,15.80
2019,09,28,13,22,15.80
2019,09,28,13,23,15.80
2019,09,28,13,24,15.80
2019,09,28,13,25,15.70
2019,09,28,13,26,15.70
2019,09,28,13,27,15.70
2019,09,28,13,28,15.70
2019,09,28,13,29,15.70
2019,09,28,13,30,15.70
2019,09,28,13,31,15.80
2019,09,28,13,32,15.80
2019,09,28,13,33,15.80
2019,09,28,13,34,15.80
2019,09,28,13,35,15.80
2019,09,28,13,36,15.80
2019,09,28,13,37,15.80
2019,09,28,13,38,15.70
2019,09,28,13,39,15.70
2019,09,28,13,40,15.70
2019,09,28,13,41,15.70
2019,09,28,13,42,15.80
2019,09,28,13,43,15.80
2019,09,28,13,44,15.80
2019,09,28,13,45,15.80
2019,09,28,13,46,15.90
2019,09,28,13,47,15.90
2019,09,28,13,48,15.90
2019,09,28,13,49,15.90
2019,09,28,13,50,15.90
2019,09,28,13,51,15.90
2019,09,28,13,52,15.90
2019,09,28,13,53,16.00
2019,09,28,13,54,16.00
2019,09,28,13,55,16.00
2019,09,28,13,56,16.00
2019,09,28,13,57,16.00
2019,09,28,13,58,16.00
2019,09,28,13,59,16.10
2019,09,28,14,00,16.10
2019,09,28,14,01,16.00
2019,09,28,14,02,16.00
2019,09,28,14,03,16.00
2019,09,28,14,04,16.00
2019,09,28,14,05,15.90
2019,09,28,14,06,16.00
2019,09,28,14,07,16.10
2019,09,28,14,08,16.10
2019,09,28,14,09,16.20
2019,09,28,14,10,16.20
2019,09,28,14,11,16.20
2019,09,28,14,12,16.20
2019,09,28,14,13,16.20
2019,09,28,14,14,16.20
2019,09,28,14,15,16.20
2019,09,28,14,16,16.20
2019,09,28,14,17,16.20
2019,09,28,14,18,16.30
2019,09,28,14,19,16.30
2019,09,28,14,20,16.30
2019,09,28,14,21,16.30
2019,09,28,14,22,16.30
2019,09,28,14,23,16.20
2019,09,28,14,24,16.20
2019,09,28,14,25,16.20
2019,09,28,14,26,16.20
2019,09,28,14,27,16.20
2019,09,28,14,28,16.10
2019,09,28,14,29,16.10
2019,09,28,14,30,16.00
2019,09,28,14,31,16.00
2019,09,28,14,32,15.90
2019,09,28,14,33,15.90
2019,09,28,14,34,16.00
2019,09,28,14,35,16.00
2019,09,28,14,36,16.00
2019,09,28,14,37,16.10
2019,09,28,14,38,16.00
2019,09,28,14,39,16.10
2019,09,28,14,40,16.10
2019,09,28,14,41,16.10
2019,09,28,14,42,16.20
2019,09,28,14,43,16.20
2019,09,28,14,44,16.20
2019,09,28,14,45,16.20
2019,09,28,14,46,16.20
2019,09,28,14,47,16.20
2019,09,28,14,48,16.30
2019,09,28,14,49,16.30
2019,09,28,14,50,16.30
2019,09,28,14,51,16.30
2019,09,28,14,52,16.40
2019,09,28,14,53,16.40
2019,09,28,14,54,16.40
2019,09,28,14,55,16.40
2019,09,28,14,56,16.50
2019,09,28,14,57,16.50
2019,09,28,14,58,16.50
2019,09,28,14,59,16.50
2019,09,28,15,00,16.50
2019,09,28,15,01,16.40
2019,09,28,15,02,16.30
2019,09,28,15,03,16.30
2019,09,28,15,04,16.30
2019,09,28,15,05,16.20
2019,09,28,15,06,16.20
2019,09,28,15,07,16.10
2019,09,28,15,08,16.10
2019,09,28,15,09,16.10
2019,09,28,15,10,16.10
2019,09,28,15,11,16.10
2019,09,28,15,12,16.20
2019,09,28,15,13,16.20
2019,09,28,15,14,16.30
2019,09,28,15,15,16.30
2019,09,28,15,16,16.40
2019,09,28,15,17,16.40
2019,09,28,15,18,16.40
2019,09,28,15,19,16.30
2019,09,28,15,20,16.30
2019,09,28,15,21,16.40
2019,09,28,15,22,16.40
2019,09,28,15,23,16.50
2019,09,28,15,24,16.50
2019,09,28,15,25,16.60
2019,09,28,15,26,16.60
2019,09,28,15,27,16.60
2019,09,28,15,28,16.60
2019,09,28,15,29,16.60
2019,09,28,15,30,16.60
2019,09,28,15,31,16.60
2019,09,28,15,32,16.60
2019,09,28,15,33,16.50
2019,09,28,15,34,16.50
2019,09,28,15,35,16.50
2019,09,28,15,36,16.40
2019,09,28,15,37,16.40
2019,09,28,15,38,16.40
2019,09,28,15,39,16.40
2019,09,28,15,40,16.50
2019,09,28,15,41,16.50
2019,09,28,15,42,16.50
2019,09,28,15,43,16.50
2019,09,28,15,44,16.40
2019,09,28,15,45,16.40
2019,09,28,15,46,16.30
2019,09,28,15,47,16.30
2019,09,28,15,48,16.30
2019,09,28,15,49,16.30
2019,09,28,15,50,16.30
2019,09,28,15,51,16.30
2019,09,28,15,52,16.30
2019,09,28,15,53,16.30
2019,09,28,15,54,16.30
2019,09,28,15,55,16.20
2019,09,28,15,56,16.20
2019,09,28,15,57,16.20
2019,09,28,15,58,16.10
2019,09,28,15,59,16.10
2019,09,28,16,00,16.10
2019,09,28,16,01,16.20
2019,09,28,16,02,16.20
2019,09,28,16,03,16.20
2019,09,28,16,04,16.20
2019,09,28,16,05,16.20
2019,09,28,16,06,16.30
2019,09,28,16,07,16.30
2019,09,28,16,08,16.30
2019,09,28,16,09,16.30
2019,09,28,16,10,16.30
2019,09,28,16,11,16.30
2019,09,28,16,12,16.30
2019,09,28,16,13,16.20
2019,09,28,16,14,16.20
2019,09,28,16,15,16.20
2019,09,28,16,16,16.20
2019,09,28,16,17,16.20
2019,09,28,16,18,16.20
2019,09,28,16,19,16.20
2019,09,28,16,20,16.20
2019,09,28,16,21,16.20
2019,09,28,16,22,16.20
2019,09,28,16,23,16.20
2019,09,28,16,24,16.20
2019,09,28,16,25,16.20
2019,09,28,16,26,16.20
2019,09,28,16,27,16.20
2019,09,28,16,28,16.30
2019,09,28,16,29,16.30
2019,09,28,16,30,16.30
2019,09,28,16,31,16.30
2019,09,28,16,32,16.40
2019,09,28,16,33,16.40
2019,09,28,16,34,16.30
2019,09,28,16,35,16.30
2019,09,28,16,36,16.30
2019,09,28,16,37,16.40
2019,09,28,16,38,16.40
2019,09,28,16,39,16.40
2019,09,28,16,40,16.40
2019,09,28,16,41,16.50
2019,09,28,16,42,16.50
2019,09,28,16,43,16.60
2019,09,28,16,44,16.60
2019,09,28,16,45,16.60
2019,09,28,16,46,16.60
2019,09,28,16,47,16.60
2019,09,28,16,48,16.60
2019,09,28,16,49,16.50
2019,09,28,16,50,16.40
2019,09,28,16,51,16.40
2019,09,28,16,52,16.40
2019,09,28,16,53,16.40
2019,09,28,16,54,16.40
2019,09,28,16,55,16.40
2019,09,28,16,56,16.40
2019,09,28,16,57,16.50
2019,09,28,16,58,16.50
2019,09,28,16,59,16.60
2019,09,28,17,00,16.60
2019,09,28,17,01,16.70
2019,09,28,17,02,16.70
2019,09,28,17,03,16.70
2019,09,28,17,04,16.70
2019,09,28,17,05,16.70
2019,09,28,17,06,16.70
2019,09,28,17,07,16.70
2019,09,28,17,08,16.70
2019,09,28,17,09,16.70
2019,09,28,17,10,16.60
2019,09,28,17,11,16.50
2019,09,28,17,12,16.40
2019,09,28,17,13,16.40
2019,09,28,17,14,16.30
2019,09,28,17,15,16.30
2019,09,28,17,16,16.30
2019,09,28,17,17,16.20
2019,09,28,17,18,16.20
2019,09,28,17,19,16.20
2019,09,28,17,20,16.10
2019,09,28,17,21,16.10
2019,09,28,17,22,16.10
2019,09,28,17,23,16.10
2019,09,28,17,24,16.10
2019,09,28,17,25,16.10
2019,09,28,17,26,16.00
2019,09,28,17,27,16.00
2019,09,28,17,28,16.00
2019,09,28,17,29,16.00
2019,09,28,17,30,16.00
2019,09,28,17,31,16.00
2019,09,28,17,32,15.90
2019,09,28,17,33,15.90
2019,09,28,17,34,15.90